轨道通信卫星FM18星 (ORBCOMM FM18)

导读

ORBCOMM FM 18是ORBCOMM低轨卫星通信系统的一员,1998年8月2日由ORB发射,运行于近地轨道,属于低轨小型卫星。该卫星依托VHF/UHF频段窄带通信能力,为全球提供双向窄带数据传输服务,支撑机器对机器(M2M)通信与物联网应用,现已广泛应用于交通运输、油气田监测、消防报警等领域,助力全球远距离数据连通。

基本信息
目录编号:
25414
目录名称:
ORBCOMM FM 18
国际标识:
1998-046B
轨道中心:
EARTH
卫星名称:
轨道通信卫星FM18星
卫星全名:
轨道通信卫星FM18星 (ORBCOMM FM18)
卫星状态:
在轨 (已飞行10267 天)
发射日期:
1998-08-02 UTC
国别 :
(ORB)
星等 :
--
该卫星已列入 空间交会检测服务 Space Conjunction Data Service (SCDS) ,当前飞行风险评估等级: 无高风险
轨道信息
数据来源 国际轨道数据 AOE轨道数据
星历时间 2026-09-10T11:35:17+0800
1天前
查看轨道信息
2026-09-10T05:00:00+0800
1天前
查看轨道信息
半长轴 7137.328km 7137.328km
偏心率 0.0005788 0.0005498
轨道倾角 44.992° 44.990°
近地点辐角 6.049° 5.277°
升交点赤经 197.002° 198.306°
平近点角 354.043° 10.597°
近地点 755.059km 755.266km
远地点 763.323km 763.116km
周期 100.015分钟 100.015分钟
每日圈数 14.397906 14.397905
详细信息
固有亮度:
8
最大亮度:
6.9
平衡模式:
三轴稳定
覆盖范围:
全球
运营商:
轨道通信公司
运营商所在国:
美国
制造商(研发单位):
轨道ATK公司
制造商所在国:
美国
使用方式:
暂无
卫星简介
轨道通信FM(Orbcomm FM)是一系列低地球轨道通信卫星,由美国卫星通信公司 Orbcomm运营。 截至2015年12月,已有63颗此类卫星绕地球运行。该卫星已退役。
2D轨道图
3D轨道图
轨道高度分析图
轨道倾角分析图
轨道综合分析图
查看轨道综合分析图
交会数据列表
事件ID 空间交会对象 最接近时刻(TCA) 交会距离 交会风险概率(CRP) 交会风险指数(CRI) 操作
CDM_260910-155702-541403-516522
2026-09-10T
15:57:17+0000
0.693 km
远距离
8.555581E-5 中风险 0.74
CDM_260912-073302-541404-871025
2026-09-12T
07:33:03+0000
1.737 km
极远距离
3.318431E-6 低风险 0.45
CDM_260911-082102-541402-548227
2026-09-11T
08:21:58+0000
1.554 km
极远距离
2.087941E-6 低风险 0.41
CDM_260907-122402-541402-981928
2026-09-07T
12:24:46+0000
2.384 km
极远距离
1.242448E-6 低风险 0.37
与全量物体交会距离演化趋势
与全量物体交会风险概率演化趋势